BEIDOU-2 IGSO-3

Last updated on Tue Sep 22 2026 00:03:12 GMT+0000 (Coordinated Universal Time)

1 37384U 11013A 26263.84398094 -.00000153 00000+0 00000+0 0 9993 2 37384 62.5506 39.2599 0034967 183.8077 186.8936 1.00290880 56629
UTC large
Height (km)
Speed (km/s)
/
Latitude / Longitude
Inclination (degrees)
Orbital Period (minutes)
Azimuth
Elevation
Range (km)
Doppler Factor

Next 0 passes for location: London (51.5072 / 0.1276)

No passes found over London.
BEIDOU-2 IGSO-3